"Pseudo-MPEC" for P11dgUs

Created 2021 Feb 24 23:07:10 UT using Find_Orb

Click here for an explanation of pseudo-MPECs

 
 Astrometry: 
     P11dgUs  C2021 01 17.46983 10 34 22.63 +36 42 30.0    ~2GJ7 20.9 GVNEOCPG96
     P11dgUs  C2021 01 17.47495 10 34 22.54 +36 42 31.1    ~2GJ7 20.9 GVNEOCPG96
     P11dgUs  C2021 02 127_2[h`rr.l:!:lp:AD:ey?fTw%.6OO8g4JWeOOsACN6iDP0hDPAcF51
     P11dgUs  C2021 02 12v`A^Qp3i7Hm:%AstrometryXi.+dQ3TAW*+y)[AFwqarU8Ch[4jNF51
     P11dgUs  C2021 02 12(IaqWF6cZD^7Oik2%fXV]?O8WLZ8`%AiN\:`(*IbOaTXPyjUeHfHF51
     P11dgUs  C2021 02 12ho:yANl'SgJ\IeBQIEnx,HV6!FFfI2h7'\j0\)I.rsv$vuru't+qF51
     P11dgUs ^C2021 02 14.61353810 22 46.074+38 48 24.89   ~2EFq 22.07GVNEOCP568
     P11dgUs ^C2021 02 14.61478010 22 46.035+38 48 25.14   ~2EFq 22.01GVNEOCP568
     P11dgUs ^C2021 02 14.61599410 22 45.995+38 48 25.35   ~2EFq 22.06GVNEOCP568
     P11dgUs KC2021 02 14uR=;U))Fd?6f)sJGvX!I+wM'ryVredacted;SMb%nB=Iojs+1X[JL01
     P11dgUs pC2021 02 14/9KXx#+%u^\)1D.38**;0^0UWofY(!]7ncolclickfTKa8ajI+R6L01
     P11dgUs KC2021 02 14w]heretlG2iLB.C:E7#:]iH/*`pOcV'y-dM2_Vh(\1^j.x5U)]DQL01
     P11dgUs pC2021 02 14lOkc$Ts+-JZ6?7$!si`dx8yRn]584(AEyZ_BD/%yv#w5G]yEPSQDL01
     P11dgUs pC2021 02 146f6$HX^mforWsep;d%=C$9_\kN)(((X[YKy9OexplanationHK4oL01
     P11dgUs  C2021 02 15.24820710 22 26.35 +38 50 24.5    ~2F6q 21.90GVNEOCPG96
     P11dgUs  C2021 02 15.25468510 22 26.19 +38 50 26.0    ~2F6q 21.35GVNEOCPG96
     P11dgUs  C2021 02 15.26118810 22 26.03 +38 50 27.0    ~2F6q 21.96GVNEOCPG96
     P11dgUs  C2021 02 15.26745510 22 25.76 +38 50 27.4    ~2F6q 22.70GVNEOCPG96
     P11dgUs ^C2021 02 15.50003210 22 18.376+38 51 11.54   ~2FI7 22.17GVNEOCP568
     P11dgUs ^C2021 02 15.50124310 22 18.332+38 51 11.73   ~2FI7 22.10GVNEOCP568
     P11dgUs ^C2021 02 15.50246510 22 18.290+38 51 11.95   ~2FI7 22.12GVNEOCP568
     P11dgUs  C2021 02 16\-[SHy2?Bk3[M$/0,78?LKAwJ4ML9;BvHWOJV;CR,V3YZviA4[``F51
     P11dgUs  C2021 02 16`[81Je]cZY9(6h,F*OR6,eJ@m;P)!ji7\TaGl$'Kc,IjSo[94_YPF51
     P11dgUs  C2021 02 16,uZ5P%%ga3(c%-D+KbG11=Vd27#!P7Q\f2rkQ^Rf;DM`OxHP03mfF51
     P11dgUs  C2021 02 16xZWU[aFfC2Ro)CFAve-7c[Ql3yvw3Cce#tt8[A%Y-WNj!O1wnshWF51
     P11dgUs |C2021 02 19.@#A?y?,B\q1F8FA=%NuTsP)^MwWo.?51a/dZo`pA`[gy(.p-6EaH06
     P11dgUs |C2021 02 19/uDnu%r)Ean`J2t@sDaYN2.6];L(#6XG^Zwc,bHOHrav84AynG'ZH06

Station data:
(568) Mauna Kea  (N19.826116 W155.472200)  US/Hawaii.
(F51) Pan-STARRS 1, Haleakala  (N20.707235 W156.255910)  US/Hawaii.
   Observers N. Primak, A. Schultz, S. Watters, J. Thiel, T. Goggia. Measurer
   PS1 Science Consortium. 1.8-m Ritchey-Chrétien + CCD.
(G96) Mt. Lemmon Survey  (N32.442754 W110.788720)  US/Arizona.  Observers T.
   A. Pruyne, B. M. Africano, E. J. Christensen, G. A. Farneth, D. C. Fuls,
   A. R. Gibbs, A. D. Grauer, H. Gröller, J. A. Johnson, R. A. Kowalski, S.
   M. Larson, G. J. Leonard, D. Rankin, R. L. Seaman, F. C. Shelly. 1.5-m
   reflector + 10K CCD.
(H06) RAS Observatory, Mayhill  (N32.903325 W105.528700)  US/New
   Mexico.  Observers E. Guido, G. Sostero, V. Gonano, L. Donato.
(L01) Višnjan Observatory, Tičan  (N45.290900 E13.749300)  Croatia.
   Observers K. Korlević, E. Pettarin. Measurer E. Pettarin. 1.0-m f/2.9
   reflector + CCD.

Orbital elements:  P11dgUs
   Perihelion 2021 Mar 2.229269 +/- 3.17287 TT =  5:30:08 (JD 2459275.729269)
Epoch 2021 Feb 19.0 TT = JDT 2459264.5                        AutoNEOCP
M 359.62435854 +/- 0.1062277        (J2000 ecliptic)
n   0.03345199 +/- 4.01525e-5       Peri.   79.49561 +/- 0.3732926
a   9.53940662 +/- 0.00762995       Node    66.44415 +/- 0.0321687
e   0.4874965 +/- 0.000608489       Incl.   21.92152 +/- 0.0046664
P  29.46                   H 15.2   G  0.15   U  6.1  
q 4.88897905 +/- 0.00221801    Q 14.1898341 +/- 0.0170699
From 27 observations 2021 Jan. 17-Feb. 19; mean residual 0".31
Residuals in arcseconds: 
210117 G96  .04+  .26+    210214 L01  .79-  .06-    210215 568  .35+  .07+    
210117 G96  .04-  .26-    210214 L01  .77-  .41-    210215 568  .30+  .03+    
210212 F51  .04+  .07+    210214 L01  .10+  .56-    210215 568  .27+  .03+    
210212 F51  .03-  .03+    210214 L01  .14+  .42-    210216 F51  .28+  .16+    
210212 F51  .06+  .12+    210214 L01  .76-  .16-    210216 F51  .13-  .00     
210212 F51  .16-  .08+    210215 G96  .46-  .23+    210216 F51  .01-  .10+    
210214 568  .22+  .06+    210215 G96  .11+  .51+    210216 F51  .47+  .13+    
210214 568  .22+  .08+    210215 G96  .70+  .27+    210219 H06  .28-  .19-    
210214 568  .21+  .07+    210215 G96  .09-  .51-    210219 H06  .03+  .16+    

Ephemerides (geocentric):
Date (UTC) HH   RA              Dec         delta   r     elong  mag " sig PA
---- -- -- --  -------------   -----------  ------ ------ -----  --- ---- ---
2021 02 24 23  10 17 17.365   +39 14 21.71  4.0083 4.8891 149.8 22.1 .652  32
2021 02 25 00  10 17 16.043   +39 14 26.22  4.0084 4.8891 149.8 22.1 .655  32
2021 02 25 01  10 17 14.720   +39 14 30.72  4.0086 4.8891 149.7 22.1 .659  32
2021 02 25 02  10 17 13.399   +39 14 35.21  4.0087 4.8891 149.7 22.1 .663  32
2021 02 25 03  10 17 12.077   +39 14 39.68  4.0089 4.8891 149.7 22.1 .666  32
2021 02 25 04  10 17 10.755   +39 14 44.13  4.0090 4.8891 149.7 22.1 .670  32
2021 02 25 05  10 17 09.434   +39 14 48.57  4.0091 4.8891 149.7 22.1 .673  32
2021 02 25 06  10 17 08.113   +39 14 53.00  4.0093 4.8891 149.6 22.1 .677  31
2021 02 25 07  10 17 06.792   +39 14 57.41  4.0094 4.8891 149.6 22.1 .680  31
2021 02 25 08  10 17 05.471   +39 15 01.81  4.0096 4.8891 149.6 22.1 .684  31
2021 02 25 09  10 17 04.151   +39 15 06.19  4.0097 4.8891 149.6 22.1 .687  31
2021 02 25 10  10 17 02.831   +39 15 10.56  4.0099 4.8890 149.6 22.1 .691  31
2021 02 25 11  10 17 01.511   +39 15 14.91  4.0100 4.8890 149.5 22.1 .695  31
2021 02 25 12  10 17 00.191   +39 15 19.25  4.0102 4.8890 149.5 22.1 .698  31
2021 02 25 13  10 16 58.871   +39 15 23.58  4.0103 4.8890 149.5 22.1 .702  31
2021 02 25 14  10 16 57.552   +39 15 27.89  4.0104 4.8890 149.5 22.1 .705  31
2021 02 25 15  10 16 56.233   +39 15 32.18  4.0106 4.8890 149.4 22.1 .709  31
2021 02 25 16  10 16 54.914   +39 15 36.46  4.0107 4.8890 149.4 22.1 .713  31
2021 02 25 17  10 16 53.595   +39 15 40.73  4.0109 4.8890 149.4 22.1 .716  31
2021 02 25 18  10 16 52.277   +39 15 44.98  4.0110 4.8890 149.4 22.1 .720  31
2021 02 25 19  10 16 50.959   +39 15 49.22  4.0112 4.8890 149.4 22.1 .723  31
2021 02 25 20  10 16 49.641   +39 15 53.44  4.0113 4.8890 149.3 22.1 .727  31
2021 02 25 21  10 16 48.323   +39 15 57.65  4.0115 4.8890 149.3 22.1 .731  31
2021 02 25 22  10 16 47.006   +39 16 01.84  4.0116 4.8890 149.3 22.1 .734  31
2021 02 25 23  10 16 45.688   +39 16 06.02  4.0118 4.8890 149.3 22.1 .738  31
2021 02 26 00  10 16 44.371   +39 16 10.18  4.0119 4.8890 149.2 22.1 .742  31
2021 02 26 01  10 16 43.055   +39 16 14.33  4.0121 4.8890 149.2 22.1 .745  31
2021 02 26 02  10 16 41.738   +39 16 18.46  4.0123 4.8890 149.2 22.1 .749  31
2021 02 26 03  10 16 40.422   +39 16 22.58  4.0124 4.8890 149.2 22.1 .753  31
2021 02 26 04  10 16 39.106   +39 16 26.69  4.0126 4.8890 149.2 22.1 .756  31
2021 02 26 05  10 16 37.790   +39 16 30.77  4.0127 4.8890 149.1 22.1 .760  30
2021 02 26 06  10 16 36.475   +39 16 34.85  4.0129 4.8890 149.1 22.1 .764  30
2021 02 26 07  10 16 35.160   +39 16 38.91  4.0130 4.8890 149.1 22.1 .767  30
2021 02 26 08  10 16 33.845   +39 16 42.96  4.0132 4.8890 149.1 22.1 .771  30
2021 02 26 09  10 16 32.530   +39 16 46.99  4.0133 4.8890 149.0 22.1 .775  30
2021 02 26 10  10 16 31.216   +39 16 51.00  4.0135 4.8890 149.0 22.1 .778  30
2021 02 26 11  10 16 29.902   +39 16 55.00  4.0136 4.8890 149.0 22.1 .782  30
2021 02 26 12  10 16 28.588   +39 16 58.99  4.0138 4.8890 149.0 22.1 .786  30
2021 02 26 13  10 16 27.274   +39 17 02.96  4.0140 4.8890 149.0 22.1 .790  30
2021 02 26 14  10 16 25.961   +39 17 06.92  4.0141 4.8890 148.9 22.1 .793  30
2021 02 26 15  10 16 24.648   +39 17 10.86  4.0143 4.8890 148.9 22.1 .797  30
2021 02 26 16  10 16 23.335   +39 17 14.79  4.0144 4.8890 148.9 22.1 .801  30
2021 02 26 17  10 16 22.023   +39 17 18.71  4.0146 4.8890 148.9 22.1 .805  30
2021 02 26 18  10 16 20.711   +39 17 22.60  4.0148 4.8890 148.8 22.1 .808  30
2021 02 26 19  10 16 19.399   +39 17 26.49  4.0149 4.8890 148.8 22.1 .812  30
2021 02 26 20  10 16 18.088   +39 17 30.36  4.0151 4.8890 148.8 22.1 .816  30
2021 02 26 21  10 16 16.776   +39 17 34.21  4.0152 4.8890 148.8 22.1 .820  30
2021 02 26 22  10 16 15.465   +39 17 38.05  4.0154 4.8890 148.7 22.1 .823  30